[[{"header":{"parameterUnit":"m.s-1","parameterCategory":1,"la1":30.2991,"la2":30.254,"lo1":-89.0895,"lo2":-89.0444,"dy":0.0017,"dx":0.0017,"nx":28,"ny":28,"refTime":"2024-10-20T21:00:00:Z","depth":0,"parameterNumber":2,"parameterNumberName":"U-component_of_WINDS"},"data":[0,0,0,0,0,0,0,0,0,0,0,0,0,0,0,0,0,0,0,0,0,0,0,0,0,0,0,0,0,0,0,0,0,0,0,0,0,0,0,0,0,0,0,0,0,0,0,0,0,0,0,0,0,0,0,0,0,0,-3.4788,-3.4788,0,-3.4822,-3.4822,-3.4822,-3.4751,-3.4749,-3.4747,-3.4744,-3.4779,-3.4782,-3.4785,0,0,0,0,0,0,0,0,0,0,0,0,0,-3.4661,-3.4664,-3.4788,-3.4788,-3.4788,-3.4822,-3.4822,-3.4823,-3.4752,-3.4749,-3.4746,-3.4743,-3.4778,-3.4782,-3.4785,0,0,0,0,0,0,0,0,0,0,0,0,0,-3.4708,-3.4665,-3.4787,-3.4757,-3.4755,-3.4822,-3.4822,-3.4823,-3.4752,-3.4749,-3.4745,-3.4742,-3.4777,-3.4781,-3.4786,-3.4884,0,0,-3.48,-3.4802,0,0,0,0,0,0,0,0,-3.4705,-3.4713,-3.4761,-3.4759,-3.4757,-3.4779,-3.479,-3.4843,-3.4753,-3.4753,-3.4744,-3.474,-3.4782,-3.4786,-3.48,-3.4886,-3.4887,-3.4801,-3.4803,-3.4805,-3.4807,0,0,0,0,0,0,0,-3.4702,-3.4711,-3.4801,-3.4762,-3.4759,-3.4742,-3.4745,-3.48,-3.4786,-3.4753,-3.4748,-3.4753,-3.478,-3.4796,-3.48,-3.4888,-3.48,-3.4804,-3.4807,-3.4809,-3.5058,-3.5062,0,0,0,0,0,0,-3.4703,-3.4708,-3.48,-3.4802,-3.4722,-3.4747,-3.475,-3.4775,-3.4786,-3.4784,-3.4756,-3.4749,-3.4789,-3.4795,-3.4801,-3.4918,-3.4805,-3.481,-3.4812,-3.5054,-3.5059,-3.5063,0,0,0,0,0,0,-3.47,-3.4712,-3.4799,-3.4754,-3.4764,-3.4753,-3.4782,-3.4778,-3.4793,-3.4788,-3.4785,-3.4774,-3.4787,-3.4795,-3.4864,-3.4918,-3.4812,-3.4816,-3.505,-3.5056,-3.5061,-3.5153,0,0,0,0,0,0,-3.4697,-3.4711,-3.4748,-3.4755,-3.4766,-3.4862,-3.4785,-3.4781,-3.4801,-3.4793,-3.4804,-3.4803,-3.4785,-3.4858,-3.4869,-3.4923,-3.482,-3.5045,-3.5052,-3.5059,-3.5145,-3.5161,-3.5175,0,0,0,0,0,-3.4693,-3.4772,-3.475,-3.4762,-3.4812,-3.4865,-3.4871,-3.4848,-3.4806,-3.4843,-3.484,-3.4803,-3.491,-3.4866,-3.4878,-3.4934,-3.5041,-3.505,-3.5058,-3.5138,-3.5158,-3.5174,0,0,0,0,0,0,-3.4771,-3.4773,-3.4748,-3.4832,-3.4849,-3.4853,-3.4899,-3.487,-3.4898,-3.489,-3.486,-3.4863,-3.494,-3.4943,-3.4893,-3.503,-3.4969,-3.498,-3.5025,-3.5044,-3.5059,-3.5057,-3.4823,0,0,0,0,0,-3.4798,-3.4841,-3.4839,-3.4914,-3.4923,-3.491,-3.4932,-3.4913,-3.4929,-3.4936,-3.4938,-3.4955,-3.4993,-3.5018,-3.5052,-3.5145,-3.5147,-3.5189,-3.5204,-3.5216,-3.5227,-3.5278,-3.5298,-3.5091,-3.5091,-3.5091,0,0,-3.4855,-3.4861,-3.4889,-3.493,-3.494,-3.4986,-3.4916,-3.4967,-3.5,-3.4943,-3.501,-3.5012,-3.5029,-3.5112,-3.5148,-3.5117,-3.5285,-3.5227,-3.5237,-3.5241,-3.5289,-3.5309,-3.5326,-3.5097,-3.5096,-3.5095,0,0,-3.4981,-3.4989,-3.5053,-3.5066,-3.5083,-3.5074,-3.5089,-3.5097,-3.5097,-3.5163,-3.5122,-3.5162,-3.5227,-3.5241,-3.5257,-3.5391,-3.5358,-3.5403,-3.5481,-3.5531,-3.5548,-3.5562,-3.5612,-3.5629,-3.5413,-3.5413,-3.5413,0,-3.5049,-3.5116,-3.5089,-3.5143,-3.5163,-3.5114,-3.5179,-3.5192,-3.522,-3.5235,-3.52,-3.5282,-3.529,-3.5376,-3.5409,-3.5423,-3.544,-3.5402,-3.5547,-3.5561,-3.5574,-3.5621,-3.564,-3.5419,-3.5418,-3.5417,-3.5417,0,-3.5199,-3.5246,-3.5296,-3.5325,-3.535,-3.5409,-3.5392,-3.5421,-3.54,-3.5395,-3.5464,-3.5472,-3.5508,-3.5526,-3.5506,-3.561,-3.5591,-3.5552,-3.549,-3.56,-3.5644,-3.5661,-3.5426,-3.5424,-3.5423,-3.5422,0,0,-3.5376,-3.5391,-3.541,-3.5423,-3.5439,-3.5475,-3.5532,-3.5568,-3.5594,-3.5615,-3.5663,-3.572,-3.5685,-3.5703,-3.5684,-3.5728,-3.5836,-3.5684,-3.5684,-3.5714,-3.5953,-3.5984,-3.6005,-3.5813,-3.5817,-3.5819,-3.5952,0,-3.5503,-3.5602,-3.5581,-3.5679,-3.5723,-3.5677,-3.5727,-3.5743,-3.574,-3.5777,-3.5773,-3.5815,-3.5764,-3.5775,-3.5816,-3.5814,-3.5884,-3.5804,-3.5859,-3.5862,-3.5859,-3.6027,-3.606,-3.6185,-3.5969,-3.5972,-3.5974,0,-3.5664,-3.5693,-3.5795,-3.5806,-3.5823,-3.5869,-3.5901,-3.5936,-3.5954,-3.5948,-3.5969,-3.5942,-3.6,-3.5936,-3.6016,-3.5962,-3.5984,-3.5986,-3.5991,-3.5996,-3.5926,-3.604,-3.6224,-3.6244,-3.6,-3.5998,-3.5996,0,-3.5786,-3.5849,-3.5919,-3.5932,-3.5945,-3.5979,-3.5986,-3.6,-3.6023,-3.6051,-3.6066,-3.61,-3.6119,-3.6146,-3.613,-3.6084,-3.6213,-3.6148,-3.6212,-3.6212,-3.6242,-3.6241,-3.6435,-3.6253,-3.6253,-3.6252,-3.6252,0,-3.5931,-3.5996,-3.5975,-3.6018,-3.609,-3.6065,-3.6137,-3.6138,-3.6151,-3.6194,-3.6156,-3.6198,-3.6172,-3.6212,-3.6199,-3.6268,-3.6277,-3.6275,-3.6271,-3.628,-3.628,-3.6294,-3.6286,-3.6257,-3.6256,-3.6255,-3.6254,0,-3.608,-3.6068,-3.6141,-3.6149,-3.6152,-3.6205,-3.6211,-3.6252,-3.6246,-3.6301,-3.6313,-3.6304,-3.6349,-3.6334,-3.6382,-3.6373,-3.6462,-3.6446,-3.6457,-3.6454,-3.652,-3.6515,-3.6731,-3.6759,-3.6557,-3.6559,-3.6561,0,-3.6174,-3.6223,-3.6236,-3.6263,-3.6273,-3.6316,-3.634,-3.6317,-3.6344,-3.6368,-3.6407,-3.6448,-3.648,-3.6554,-3.6552,-3.6589,-3.6575,-3.6648,-3.658,-3.6588,-3.6579,-3.6577,-3.6583,-3.6662,-3.6665,-3.6667,-3.6668,0,-3.6344,-3.6336,-3.6372,-3.6407,-3.6437,-3.6463,-3.6486,-3.651,-3.6488,-3.6521,-3.6566,-3.6592,-3.6641,-3.6684,-3.6717,-3.6725,-3.6694,-3.6689,-3.6707,-3.6717,-3.6722,-3.6722,-3.6496,-3.6685,-3.6683,-3.6682,-3.6681,-3.668,-3.6469,-3.6512,-3.6528,-3.657,-3.6585,-3.6608,-3.6647,-3.6646,-3.6684,-3.6723,-3.6707,-3.6761,-3.6778,-3.682,-3.6832,-3.6874,-3.6846,-3.687,-3.6877,-3.6884,-3.6893,-3.6714,-3.688,-3.6879,-3.6879,-3.6878,-3.6878,0,-3.6639,-3.6647,-3.6686,-3.672,-3.6754,-3.6721,-3.6745,-3.6775,-3.6823,-3.6841,-3.6874,-3.6928,-3.6969,-3.6971,-3.7009,-3.7043,-3.703,-3.7054,-3.7052,-3.7055,-3.6915,-3.6897,-3.7064,-3.7064,-3.7064,-3.7064,-3.7064,-3.7064,-3.6731,-3.6802,-3.6796,-3.6874,-3.6882,-3.6934,-3.6951,-3.6972,-3.6987,-3.7049,-3.7083,-3.7084,-3.7096,-3.7136,-3.7172,-3.7172,-3.7189,-3.7219,-3.7213,-3.7083,-3.7065,-3.7047,-3.703,-3.7222,-3.7223,-3.735,-3.7351,-3.7352]},{"header":{"parameterUnit":"m.s-1","parameterCategory":1,"la1":30.2991,"la2":30.254,"lo1":-89.0895,"lo2":-89.0444,"dy":0.0017,"dx":0.0017,"nx":28,"ny":28,"refTime":"2024-10-20T21:00:00:Z","depth":0,"parameterNumber":3,"parameterNumberName":"V-component_of_WINDS"},"data":[0,0,0,0,0,0,0,0,0,0,0,0,0,0,0,0,0,0,0,0,0,0,0,0,0,0,0,0,0,0,0,0,0,0,0,0,0,0,0,0,0,0,0,0,0,0,0,0,0,0,0,0,0,0,0,0,0,0,-2.064,-2.064,0,-2.0645,-2.0646,-2.0646,-2.0611,-2.061,-2.0609,-2.0608,-2.0614,-2.0615,-2.0616,0,0,0,0,0,0,0,0,0,0,0,0,0,-2.0598,-2.0599,-2.064,-2.064,-2.064,-2.0645,-2.0646,-2.0646,-2.0611,-2.061,-2.0608,-2.0607,-2.0614,-2.0615,-2.0616,0,0,0,0,0,0,0,0,0,0,0,0,0,-2.0611,-2.0599,-2.064,-2.0623,-2.0622,-2.0645,-2.0646,-2.0646,-2.0611,-2.061,-2.0608,-2.0607,-2.0613,-2.0615,-2.0617,-2.0657,0,0,-2.0622,-2.0622,0,0,0,0,0,0,0,0,-2.0611,-2.0613,-2.0626,-2.0624,-2.0623,-2.0626,-2.0633,-2.0649,-2.0612,-2.0615,-2.0608,-2.0606,-2.0619,-2.062,-2.0625,-2.0657,-2.0657,-2.0622,-2.0623,-2.0623,-2.0624,0,0,0,0,0,0,0,-2.061,-2.0612,-2.0642,-2.0626,-2.0624,-2.0615,-2.0616,-2.0636,-2.0626,-2.0615,-2.0612,-2.0613,-2.0618,-2.0623,-2.0625,-2.0657,-2.0622,-2.0623,-2.0624,-2.0625,-2.0721,-2.0723,0,0,0,0,0,0,-2.0611,-2.0612,-2.0642,-2.0642,-2.0613,-2.0617,-2.0617,-2.0626,-2.0625,-2.0624,-2.0615,-2.0612,-2.0621,-2.0623,-2.0625,-2.0671,-2.0623,-2.0625,-2.0626,-2.0719,-2.0721,-2.0723,0,0,0,0,0,0,-2.061,-2.0614,-2.0642,-2.0626,-2.0629,-2.062,-2.063,-2.0627,-2.0632,-2.0625,-2.0623,-2.0622,-2.062,-2.0622,-2.0649,-2.067,-2.0626,-2.0627,-2.0718,-2.072,-2.0722,-2.0763,0,0,0,0,0,0,-2.0609,-2.0614,-2.0629,-2.0627,-2.063,-2.0666,-2.0631,-2.0628,-2.0635,-2.0631,-2.0631,-2.063,-2.0619,-2.0646,-2.065,-2.0672,-2.0629,-2.0716,-2.0719,-2.0722,-2.076,-2.0767,-2.0773,0,0,0,0,0,-2.0608,-2.0641,-2.063,-2.0634,-2.0649,-2.0667,-2.0669,-2.0656,-2.0637,-2.0652,-2.0647,-2.063,-2.0667,-2.0649,-2.0653,-2.0676,-2.0714,-2.0718,-2.0721,-2.0757,-2.0766,-2.0773,0,0,0,0,0,0,-2.0647,-2.0641,-2.0629,-2.0662,-2.0665,-2.0661,-2.068,-2.0665,-2.0674,-2.067,-2.0654,-2.0654,-2.0683,-2.0682,-2.0662,-2.0714,-2.0687,-2.0692,-2.0713,-2.0721,-2.0727,-2.0727,-2.063,0,0,0,0,0,-2.0659,-2.0675,-2.0668,-2.0698,-2.07,-2.069,-2.0697,-2.0687,-2.069,-2.0691,-2.0688,-2.0691,-2.0704,-2.0712,-2.0724,-2.076,-2.0759,-2.0777,-2.0783,-2.0789,-2.0793,-2.0811,-2.0819,-2.0735,-2.0735,-2.0735,0,0,-2.0686,-2.0684,-2.0695,-2.0706,-2.0707,-2.0723,-2.0691,-2.071,-2.0721,-2.0694,-2.0718,-2.0716,-2.0719,-2.075,-2.0763,-2.075,-2.0816,-2.0793,-2.0797,-2.0799,-2.0815,-2.0823,-2.083,-2.0737,-2.0737,-2.0736,0,0,-2.0741,-2.0742,-2.0766,-2.0768,-2.077,-2.0762,-2.0768,-2.0766,-2.0763,-2.0787,-2.0767,-2.078,-2.0802,-2.0804,-2.0809,-2.0863,-2.0847,-2.0867,-2.09,-2.0918,-2.0925,-2.0931,-2.095,-2.0957,-2.0871,-2.0871,-2.0872,0,-2.0774,-2.0796,-2.0781,-2.08,-2.0805,-2.0781,-2.0805,-2.0807,-2.0813,-2.0817,-2.0802,-2.0828,-2.0828,-2.0859,-2.0872,-2.0877,-2.0882,-2.0867,-2.0925,-2.0931,-2.0936,-2.0954,-2.0961,-2.0874,-2.0874,-2.0873,-2.0873,0,-2.0836,-2.0852,-2.0871,-2.0877,-2.0884,-2.0906,-2.0893,-2.0903,-2.0891,-2.0885,-2.0909,-2.0908,-2.0918,-2.0925,-2.0914,-2.0954,-2.0945,-2.0928,-2.0901,-2.0947,-2.0963,-2.097,-2.0877,-2.0876,-2.0876,-2.0875,0,0,-2.0918,-2.0913,-2.092,-2.0922,-2.0921,-2.0933,-2.0953,-2.0963,-2.0971,-2.0975,-2.0991,-2.101,-2.0993,-2.0998,-2.0987,-2.1003,-2.1045,-2.0983,-2.0983,-2.0994,-2.1088,-2.1101,-2.1109,-2.1034,-2.1035,-2.1036,-2.1088,0,-2.0971,-2.1005,-2.0991,-2.1027,-2.1041,-2.1017,-2.1034,-2.1035,-2.103,-2.1041,-2.1035,-2.1048,-2.1026,-2.1028,-2.1042,-2.1037,-2.1064,-2.1033,-2.1049,-2.105,-2.1049,-2.1118,-2.1132,-2.1181,-2.1094,-2.1095,-2.1096,0,-2.1039,-2.1045,-2.1082,-2.1078,-2.1083,-2.1099,-2.1106,-2.1117,-2.1117,-2.1112,-2.1117,-2.1102,-2.1121,-2.1094,-2.112,-2.1099,-2.1105,-2.1103,-2.1104,-2.1106,-2.1076,-2.1121,-2.1196,-2.1203,-2.1106,-2.1105,-2.1105,0,-2.1094,-2.1112,-2.1136,-2.1138,-2.1134,-2.1145,-2.1144,-2.1143,-2.1149,-2.1155,-2.1159,-2.1167,-2.1171,-2.1178,-2.1165,-2.1147,-2.1193,-2.1165,-2.1189,-2.1189,-2.12,-2.1199,-2.1277,-2.1204,-2.1204,-2.1203,-2.1203,0,-2.1156,-2.1179,-2.116,-2.1175,-2.12,-2.1183,-2.1208,-2.1204,-2.1204,-2.1217,-2.1197,-2.1209,-2.1192,-2.1203,-2.1194,-2.1216,-2.1219,-2.1215,-2.1212,-2.1217,-2.1217,-2.122,-2.1216,-2.1205,-2.1205,-2.1205,-2.1204,0,-2.1222,-2.1211,-2.1235,-2.1228,-2.1227,-2.1246,-2.124,-2.1253,-2.1246,-2.1263,-2.1266,-2.1254,-2.1266,-2.1254,-2.1266,-2.1259,-2.1289,-2.1281,-2.1289,-2.1287,-2.1311,-2.1309,-2.1393,-2.1403,-2.1324,-2.1325,-2.1325,0,-2.1263,-2.128,-2.1274,-2.1282,-2.1281,-2.1293,-2.1299,-2.1282,-2.1289,-2.129,-2.1303,-2.1313,-2.1321,-2.1341,-2.1333,-2.1342,-2.1334,-2.1363,-2.1335,-2.1339,-2.1334,-2.1333,-2.1334,-2.1369,-2.137,-2.137,-2.1371,0,-2.1335,-2.1328,-2.1337,-2.1343,-2.135,-2.1354,-2.1357,-2.1364,-2.1347,-2.1356,-2.1367,-2.1373,-2.1383,-2.1394,-2.1399,-2.1398,-2.1382,-2.138,-2.1386,-2.1391,-2.1394,-2.1392,-2.1304,-2.1378,-2.1377,-2.1377,-2.1376,-2.1376,-2.1389,-2.1403,-2.1401,-2.1411,-2.1411,-2.1414,-2.1425,-2.1419,-2.1428,-2.1435,-2.1425,-2.1439,-2.1438,-2.1444,-2.1445,-2.1455,-2.1443,-2.1452,-2.1454,-2.1456,-2.146,-2.1392,-2.1456,-2.1456,-2.1456,-2.1456,-2.1456,0,-2.146,-2.1457,-2.1466,-2.147,-2.1478,-2.1461,-2.1463,-2.1471,-2.1483,-2.1483,-2.149,-2.1503,-2.1512,-2.1505,-2.1513,-2.1523,-2.1516,-2.1526,-2.1525,-2.1525,-2.1471,-2.1464,-2.1531,-2.1531,-2.1531,-2.1531,-2.1531,-2.1531,-2.1498,-2.152,-2.1512,-2.1533,-2.153,-2.1543,-2.1546,-2.1548,-2.1548,-2.1563,-2.157,-2.1565,-2.1562,-2.1569,-2.1577,-2.1575,-2.1578,-2.1591,-2.1586,-2.1536,-2.1528,-2.1521,-2.1516,-2.1592,-2.1592,-2.1639,-2.1639,-2.164]}]]